Regional Weather Roundup
Issued by NWS Goodland, KS

Home | Current Version | Previous Version | Text Only | Print | Product List | Glossary On
Versions: 1 2 3 4 5 6 7 8 9 10 11 12 13 14 15 16 17 18 19 20 21 22 23 24 25 26 27 28 29 30 31 32 33 34 35 36 37 38 39 40 41 42 43 44 45 46 47 48 49 50
000
ASUS43 KGLD 060508
RWRGLD

GOODLAND FORECAST AREA HOURLY WEATHER ROUNDUP
NATIONAL WEATHER SERVICE GOODLAND KS
1100 PM MDT SUN JUL 05 2015

...OFFICIAL OBSERVATIONS...

CITY           SKY/WX    TMP DP  RH WIND       PRES   REMARKS
GOODLAND KS    CLOUDY    68  63  84 NE8       29.89F
HILL CITY KS   CLOUDY    86  62  44 S18G28    29.80S
IMPERIAL NEB   CLOUDY    71  63  75 N21G29    29.90R
MCCOOK NEB     CLOUDY    76  64  66 E3        29.81R
AKRON CO       CLOUDY    66  62  87 N15       30.03R
BURLINGTON CO  CLOUDY    71  59  65 N16       29.96R
LIMON CO       CLOUDY    67  57  70 N21G32    30.06R
$$

...UNOFFICIAL OBSERVATIONS...

CITY           SKY/WX    TMP DP  RH WIND       PRES   REMARKS
COLBY KS       CLEAR     81  64  57 W12       29.90R
GOVE KS          N/A     84  32  15 MISG        N/A
NORTON KS      CLEAR     82  55  39 NW6       29.82R
SHARON SPRINGS   N/A     82  58  43 NW8         N/A
KIT CARSON CO    N/A     73  59  62 MISG        N/A
$$


USA.gov is the U.S. government's official web portal to all federal, state and local government web resources and services.